Selawik, AK

8:36 AM AKDT on May 22, 2018 (GMT -0800)
Selawik

Weather History for PASK - April, 2013

Change the Weather History Date:

Wednesday, April 17, 2013

  Actual Average Record
Temperature  
Mean Temperature -3 °F -  
Max Temperature 10 °F 22 °F 39 °F (2007)
Min Temperature -16 °F 8 °F -16 °F (2013)
Degree Days  
Heating Degree Days 68    
Moisture  
Dew Point -7 °F    
Average Humidity 85    
Maximum Humidity 100    
Minimum Humidity 67    
Precipitation  
Precipitation 0.00 in - - ()
Sea Level Pressure  
Sea Level Pressure 30.58 in    
Wind  
Wind Speed 1 mph (WSW)    
Max Wind Speed 9 mph    
Max Gust Speed -    
Visibility 9 miles    
Events      
Averages and records for this station are not official NWS values.
T = Trace of Precipitation, MM = Missing Value Source: NWS Daily Summary

Daily Weather History Graph

Daily Weather History Graph

Search for Another Location

Airport or City:

Astronomy

Apr. 17, 2013 Rise Set
Actual Time 6:46 AM AKDT 10:34 PM AKDT
Civil Twilight 5:40 AM AKDT 11:41 PM AKDT
Nautical Twilight 3:39 AM AKDT 1:53 AM AKDT
Astronomical Twilight Sun does not set Sun does not set
Moon 11:16 AM AKDT (4/17) 5:17 AM AKDT (4/17)
Length of Visible Light 18h 00m
Length of Day
15h 48m
Waxing Crescent, 44% of the Moon is Illuminated
Apr 17
Waxing Crescent
Apr 18
First Quarter
Apr 25
Full
May 2
Last Quarter
May 9
New

Hourly Weather History & Observations

Time (AKDT) Temp. Windchill Dew Point Humidity Pressure Visibility Wind Dir Wind Speed Gust Speed Precip Events Conditions
12:16 AM -7.6 °F - -7.6 °F 100% 30.52 in 10.0 mi Calm Calm - N/A   Clear
12:36 AM -7.6 °F - -13.0 °F 77% 30.53 in 10.0 mi Calm Calm - N/A   Clear
12:56 AM -9.4 °F - -11.2 °F 92% 30.53 in 10.0 mi Calm Calm - N/A   Clear
1:16 AM -9.4 °F - -14.8 °F 77% 30.53 in 10.0 mi Calm Calm - N/A   Clear
1:36 AM -9.4 °F - -14.8 °F 77% 30.53 in 10.0 mi Calm Calm - N/A   Clear
1:56 AM -9.4 °F - -11.2 °F 92% 30.54 in 10.0 mi Calm Calm - N/A   Clear
2:16 AM -11.2 °F - -16.6 °F 77% 30.55 in 10.0 mi Calm Calm - N/A   Clear
2:36 AM -11.2 °F - -14.8 °F 84% 30.55 in 10.0 mi Calm Calm - N/A   Clear
2:56 AM -11.2 °F - -14.8 °F 84% 30.56 in 10.0 mi Calm Calm - N/A   Clear
3:16 AM -9.4 °F - -11.2 °F 92% 30.55 in 10.0 mi Calm Calm - N/A   Clear
3:36 AM -11.2 °F - -16.6 °F 77% 30.55 in 10.0 mi Calm Calm - N/A   Clear
3:56 AM -11.2 °F - -14.8 °F 84% 30.55 in 1.5 mi Calm Calm - N/A   Clear
4:16 AM -11.2 °F - -16.6 °F 77% 30.54 in 2.5 mi Calm Calm - N/A   Clear
4:36 AM -14.8 °F - -16.6 °F 92% 30.55 in 3.0 mi Calm Calm - N/A   Clear
4:56 AM -14.8 °F - -20.2 °F 77% 30.55 in 10.0 mi Calm Calm - N/A   Clear
5:16 AM -16.6 °F - -18.4 °F 92% 30.55 in 10.0 mi Calm Calm - N/A   Clear
5:36 AM -16.6 °F -26.8 °F -20.2 °F 84% 30.56 in 3.0 mi ENE 3.5 mph - N/A   Partly Cloudy
6:16 AM -16.6 °F -26.8 °F -18.4 °F 92% 30.56 in 0.5 mi NE 3.5 mph - N/A   Overcast
6:36 AM -16.6 °F -26.8 °F -18.4 °F 92% 30.56 in 1.0 mi NNE 3.5 mph - N/A   Overcast
6:56 AM -16.6 °F -26.8 °F -18.4 °F 92% 30.58 in 1.2 mi NNE 3.5 mph - N/A   Overcast
7:16 AM -16.6 °F -26.8 °F -20.2 °F 84% 30.58 in 5.0 mi NNE 3.5 mph - N/A   Overcast
7:36 AM -16.6 °F - -16.6 °F 100% 30.59 in 1.8 mi Calm Calm - N/A   Overcast
7:56 AM -16.6 °F - -20.2 °F 84% 30.58 in 10.0 mi Calm Calm - N/A   Overcast
8:16 AM -14.8 °F - -16.6 °F 92% 30.59 in 10.0 mi Calm Calm - N/A   Scattered Clouds
8:36 AM -14.8 °F - -16.6 °F 92% 30.59 in 10.0 mi Calm Calm - N/A   Clear
8:56 AM -14.8 °F - -18.4 °F 84% 30.60 in 10.0 mi Calm Calm - N/A   Clear
9:16 AM -14.8 °F - -14.8 °F 100% 30.60 in 10.0 mi Calm Calm - N/A   Clear
9:36 AM -11.2 °F - -14.8 °F 84% 30.59 in 10.0 mi Calm Calm - N/A   Clear
9:56 AM -11.2 °F - -11.2 °F 100% 30.60 in 10.0 mi Calm Calm - N/A   Scattered Clouds
10:16 AM -11.2 °F - -13.0 °F 92% 30.60 in 2.0 mi Calm Calm - N/A   Overcast
10:36 AM -9.4 °F - -9.4 °F 100% 30.59 in 10.0 mi Calm Calm - N/A   Scattered Clouds
10:56 AM -9.4 °F - -9.4 °F 100% 30.60 in 10.0 mi Calm Calm - N/A   Clear
11:16 AM -7.6 °F - -7.6 °F 100% 30.59 in 0.8 mi Calm Calm - N/A   Mostly Cloudy
11:36 AM -5.8 °F -14.5 °F -7.6 °F 92% 30.60 in 10.0 mi SE 3.5 mph - N/A   Clear
11:56 AM -4.0 °F - -4.0 °F 100% 30.60 in 10.0 mi Calm Calm - N/A   Clear
12:36 PM -2.2 °F - -4.0 °F 92% 30.61 in 10.0 mi Calm Calm - N/A   Clear
12:56 PM -0.4 °F - -0.4 °F 100% 30.62 in 10.0 mi Calm Calm - N/A   Clear
1:16 PM -0.4 °F - -5.8 °F 78% 30.62 in 10.0 mi Calm Calm - N/A   Clear
1:36 PM 1.4 °F - 1.4 °F 100% 30.61 in 10.0 mi Calm Calm - N/A   Clear
1:56 PM 1.4 °F - 1.4 °F 100% 30.62 in 10.0 mi Calm Calm - N/A   Clear
2:16 PM 1.4 °F -6.2 °F -2.2 °F 85% 30.62 in 10.0 mi NNE 3.5 mph - N/A   Clear
2:36 PM 3.2 °F -4.2 °F -0.4 °F 85% 30.62 in 10.0 mi NNE 3.5 mph - N/A   Clear
2:56 PM 3.2 °F - 1.4 °F 92% 30.62 in 10.0 mi Calm Calm - N/A   Clear
3:16 PM 5.0 °F - 3.2 °F 92% 30.62 in 10.0 mi Calm Calm - N/A   Clear
3:36 PM 5.0 °F -2.1 °F 1.4 °F 85% 30.61 in 10.0 mi NNE 3.5 mph - N/A   Clear
3:56 PM 6.8 °F - 3.2 °F 85% 30.62 in 10.0 mi Calm Calm - N/A   Clear
4:16 PM 6.8 °F - 3.2 °F 85% 30.61 in 10.0 mi Calm Calm - N/A   Clear
4:36 PM 8.6 °F - 1.4 °F 73% 30.61 in 10.0 mi Calm Calm - N/A   Clear
4:56 PM 10.4 °F 4.0 °F 5.0 °F 79% 30.61 in 10.0 mi SW 3.5 mph - N/A   Clear
5:16 PM 10.4 °F - 1.4 °F 67% 30.61 in 10.0 mi Calm Calm - N/A   Clear
5:36 PM 10.4 °F -0.4 °F 3.2 °F 73% 30.60 in 10.0 mi WSW 6.9 mph - N/A   Clear
5:56 PM 10.4 °F 0.8 °F 3.2 °F 73% 30.60 in 10.0 mi SW 5.8 mph - N/A   Clear
6:16 PM 10.4 °F -2.4 °F 3.2 °F 73% 30.61 in 10.0 mi SW 9.2 mph - N/A   Clear
6:36 PM 10.4 °F -0.4 °F 3.2 °F 73% 30.60 in 10.0 mi SW 6.9 mph - N/A   Clear
6:56 PM 8.6 °F -2.6 °F 3.2 °F 79% 30.60 in 10.0 mi WSW 6.9 mph - N/A   Clear
7:16 PM 8.6 °F -1.3 °F 3.2 °F 79% 30.60 in 10.0 mi WSW 5.8 mph - N/A   Clear
7:36 PM 8.6 °F -2.6 °F 3.2 °F 79% 30.59 in 10.0 mi SW 6.9 mph - N/A   Clear
7:56 PM 8.6 °F -3.7 °F 3.2 °F 79% 30.59 in 10.0 mi WSW 8.1 mph - N/A   Clear
8:16 PM 8.6 °F -2.6 °F 3.2 °F 79% 30.59 in 10.0 mi WSW 6.9 mph - N/A   Clear
8:36 PM 8.6 °F -1.3 °F 1.4 °F 73% 30.59 in 10.0 mi SW 5.8 mph - N/A   Clear
8:56 PM 8.6 °F -1.3 °F 1.4 °F 73% 30.58 in 10.0 mi SW 5.8 mph - N/A   Clear
9:16 PM 6.8 °F -4.8 °F 1.4 °F 79% 30.59 in 10.0 mi SW 6.9 mph - N/A   Clear
9:36 PM 6.8 °F -4.8 °F -0.4 °F 72% 30.59 in 10.0 mi SW 6.9 mph - N/A   Clear
9:56 PM 5.0 °F -8.1 °F -0.4 °F 78% 30.58 in 10.0 mi SW 8.1 mph - N/A   Clear
10:16 PM 3.2 °F -10.3 °F -2.2 °F 78% 30.58 in 10.0 mi WSW 8.1 mph - N/A   Clear
10:36 PM 3.2 °F -7.8 °F -0.4 °F 85% 30.58 in 10.0 mi WSW 5.8 mph - N/A   Clear
10:56 PM 3.2 °F -9.1 °F -0.4 °F 85% 30.57 in 10.0 mi WSW 6.9 mph - N/A   Clear
11:16 PM 1.4 °F -11.3 °F -2.2 °F 85% 30.57 in 10.0 mi WSW 6.9 mph - N/A   Clear
11:36 PM 1.4 °F -12.5 °F -2.2 °F 85% 30.58 in 10.0 mi West 8.1 mph - N/A   Clear
11:56 PM 1.4 °F -11.3 °F -2.2 °F 85% 30.58 in 10.0 mi West 6.9 mph - N/A   Clear